Location: Unspecified
(42.9300°N, 71.1866°W)
Time: 12:59:41
(UTC-04:00)

Cosmos 1674 - Visible Passes

Search period start: 22 September 2017 00:00
Search period end: 02 October 2017 00:00
Orbit: 498 x 522 km, 82.5° (Epoch: 21 September)

Date Brightness Start Highest point End Pass type
(mag) Time Alt. Az. Time Alt. Az. Time Alt. Az.
22 Sep 4.5 19:54:02 10° NNE 19:55:44 16° ENE 19:55:44 16° ENE visible
22 Sep 5.0 21:28:49 10° NNW 21:30:38 23° NW 21:30:38 23° NW visible
23 Sep 4.6 19:37:49 10° NE 19:39:25 13° ENE 19:39:25 13° ENE visible
23 Sep 4.4 21:11:56 10° NNW 21:14:20 31° NW 21:14:20 31° NW visible
24 Sep 4.7 19:22:09 10° ENE 19:22:48 10° ENE 19:23:09 10° ENE visible
24 Sep 3.6 20:55:06 10° NNW 20:58:04 45° NW 20:58:04 45° NW visible
25 Sep 2.8 20:38:18 10° NNW 20:41:52 70° WNW 20:41:52 70° WNW visible
26 Sep 2.5 20:21:33 10° N 20:25:18 87° E 20:25:45 68° SSE visible
27 Sep 2.5 20:04:49 10° N 20:08:33 67° E 20:09:42 40° SSE visible
28 Sep 2.7 19:48:07 10° N 19:51:47 50° E 19:53:47 23° SE visible
28 Sep 5.9 21:26:21 10° WNW 21:26:52 10° W 21:27:22 10° W visible
29 Sep 3.1 19:31:28 10° N 19:35:00 39° ENE 19:38:03 13° SE visible
29 Sep 5.7 21:08:24 10° WNW 21:10:13 13° W 21:12:01 10° WSW visible
30 Sep 3.4 19:14:52 10° NNE 19:18:12 30° ENE 19:21:31 10° SE visible
30 Sep 5.5 20:51:07 10° NW 20:53:33 17° W 20:55:58 10° SW visible
01 Oct 3.7 18:58:18 10° NNE 19:01:24 24° ENE 19:04:29 10° SE visible
01 Oct 5.2 20:34:00 10° NW 20:36:52 21° W 20:39:43 10° SW visible
